AEE317 EYVI-LZIB

Flight info

Callsign AEE317
Flight time N/A
Altitude 38000
Route UPASI DCT TUNGA DCT SUWGI M985 EVINA DCT BAVOK DCT OGDAS DCT MAVOR P10 BERVA
Aircraft B737/M-SDE2E3FGHIRWXY/LB1

Departure

Time 2026-05-06 09:29
Airport Vilnius International Airport (EYVI)

Arrival

Time N/A
Airport M. R. Štefánik Airport (LZIB)
Time Latitude Longitude Altitude Speed Heading
2026-05-06 08:56 54.64491 25.28168 618 ft 0 kts 270°
2026-05-06 09:16 54.64491 25.28181 614 ft 4 kts 271°
2026-05-06 09:17 54.64489 25.28228 627 ft 4 kts 281°
2026-05-06 09:17 54.64482 25.28273 614 ft 4 kts 286°
2026-05-06 09:17 54.64476 25.28318 614 ft 4 kts 272°
2026-05-06 09:17 54.64476 25.28338 614 ft 0 kts 256°
2026-05-06 09:20 54.64476 25.28332 614 ft 1 kts 256°
2026-05-06 09:20 54.64474 25.28322 614 ft 2 kts 256°
2026-05-06 09:21 54.64471 25.28301 614 ft 0 kts 251°
2026-05-06 09:21 54.64464 25.28287 620 ft 1 kts 224°
2026-05-06 09:21 54.64456 25.28279 614 ft 2 kts 202°
2026-05-06 09:21 54.64418 25.28326 619 ft 14 kts 111°
2026-05-06 09:22 54.64406 25.28492 614 ft 13 kts 86°
2026-05-06 09:22 54.64403 25.28621 625 ft 8 kts 122°
2026-05-06 09:22 54.64359 25.28654 617 ft 6 kts 170°
2026-05-06 09:22 54.64318 25.28662 614 ft 6 kts 174°
2026-05-06 09:23 54.64272 25.28669 614 ft 7 kts 175°
2026-05-06 09:23 54.64222 25.28677 623 ft 9 kts 174°
2026-05-06 09:23 54.64139 25.28692 614 ft 15 kts 174°
2026-05-06 09:23 54.64014 25.28685 619 ft 20 kts 199°
2026-05-06 09:24 54.63871 25.28585 614 ft 23 kts 202°
2026-05-06 09:24 54.63728 25.28487 621 ft 21 kts 202°
2026-05-06 09:24 54.63606 25.28401 625 ft 17 kts 201°
2026-05-06 09:24 54.63509 25.28333 614 ft 13 kts 202°
2026-05-06 09:25 54.63434 25.28281 614 ft 10 kts 202°
2026-05-06 09:25 54.63363 25.28232 619 ft 14 kts 201°
2026-05-06 09:25 54.63249 25.28154 614 ft 20 kts 202°
2026-05-06 09:25 54.63115 25.28059 614 ft 21 kts 205°
2026-05-06 09:26 54.62987 25.27969 625 ft 19 kts 200°
2026-05-06 09:26 54.62864 25.27886 619 ft 19 kts 201°
2026-05-06 09:26 54.62744 25.27802 614 ft 19 kts 201°
2026-05-06 09:26 54.62627 25.27722 614 ft 16 kts 203°
2026-05-06 09:27 54.62545 25.27663 619 ft 10 kts 200°
2026-05-06 09:27 54.62481 25.27702 623 ft 12 kts 141°
2026-05-06 09:27 54.62424 25.27787 623 ft 9 kts 126°
2026-05-06 09:27 54.62429 25.27886 621 ft 8 kts 45°
2026-05-06 09:28 54.62455 25.27911 610 ft 0 kts 24°
2026-05-06 09:28 54.62486 25.27934 610 ft 26 kts 23°
2026-05-06 09:28 54.62891 25.28211 612 ft 97 kts 21°
2026-05-06 09:28 54.63705 25.28788 613 ft 153 kts 23°
2026-05-06 09:29 54.64760 25.29547 961 ft 174 kts 23°
2026-05-06 09:29 54.65937 25.30359 1626 ft 182 kts 22°
2026-05-06 09:29 54.67079 25.31097 2645 ft 177 kts 21°
2026-05-06 09:29 54.68374 25.31876 2707 ft 219 kts 20°
2026-05-06 09:30 54.69865 25.32884 3147 ft 237 kts 24°
2026-05-06 09:30 54.71406 25.34003 3883 ft 242 kts 24°
2026-05-06 09:30 54.72982 25.35119 4695 ft 247 kts 23°
2026-05-06 09:30 54.74595 25.36239 5486 ft 253 kts 22°
2026-05-06 09:31 54.76250 25.37379 6243 ft 259 kts 22°
2026-05-06 09:31 54.78005 25.38031 6971 ft 266 kts 358°
2026-05-06 09:31 54.79807 25.37348 7819 ft 266 kts 334°
2026-05-06 09:31 54.81427 25.35663 8372 ft 280 kts 311°
2026-05-06 09:32 54.82433 25.32775 9124 ft 282 kts 290°
2026-05-06 09:32 54.83165 25.29600 10048 ft 284 kts 287°
2026-05-06 09:32 54.83595 25.26211 10575 ft 298 kts 266°
2026-05-06 09:32 54.83104 25.22616 10820 ft 319 kts 242°
2026-05-06 09:33 54.81649 25.19662 11434 ft 330 kts 216°
2026-05-06 09:33 54.79581 25.17904 12321 ft 333 kts 204°
2026-05-06 09:33 54.77415 25.16476 13266 ft 334 kts 203°
2026-05-06 09:33 54.75227 25.15027 14102 ft 338 kts 204°
2026-05-06 09:34 54.73026 25.13530 14921 ft 342 kts 204°
2026-05-06 09:34 54.70858 25.11796 15744 ft 344 kts 215°
2026-05-06 09:34 54.69027 25.09132 16573 ft 346 kts 225°
2026-05-06 09:34 54.67316 25.06190 17380 ft 349 kts 226°
2026-05-06 09:35 54.65606 25.03175 18120 ft 353 kts 226°
2026-05-06 09:35 54.63877 25.00132 18850 ft 357 kts 226°
2026-05-06 09:35 54.62120 24.97065 19537 ft 362 kts 225°
2026-05-06 09:35 54.60327 24.93968 20180 ft 367 kts 225°
2026-05-06 09:36 54.58509 24.90844 20849 ft 371 kts 225°
2026-05-06 09:36 54.56671 24.87695 21482 ft 374 kts 225°
2026-05-06 09:36 54.54807 24.84509 22064 ft 379 kts 225°
2026-05-06 09:36 54.52948 24.81338 22621 ft 384 kts 225°
2026-05-06 09:37 54.51041 24.78083 23191 ft 388 kts 226°
2026-05-06 09:37 54.49398 24.74401 23736 ft 392 kts 240°
2026-05-06 09:37 54.48283 24.70086 24274 ft 396 kts 247°
2026-05-06 09:37 54.47289 24.65637 24800 ft 400 kts 248°
2026-05-06 09:38 54.46311 24.61144 25313 ft 403 kts 248°
2026-05-06 09:38 54.45315 24.56614 25825 ft 407 kts 247°
2026-05-06 09:38 54.44294 24.52054 26286 ft 410 kts 247°
2026-05-06 09:38 54.43258 24.47489 26775 ft 412 kts 246°
2026-05-06 09:39 54.42206 24.42895 27254 ft 414 kts 246°
2026-05-06 09:39 54.41143 24.38276 27691 ft 417 kts 246°
2026-05-06 09:39 54.40070 24.33629 28087 ft 420 kts 246°
2026-05-06 09:39 54.38989 24.28956 28496 ft 423 kts 246°
2026-05-06 09:40 54.37978 24.24204 28903 ft 426 kts 249°
2026-05-06 09:40 54.37088 24.19331 29296 ft 429 kts 251°
2026-05-06 09:40 54.35418 24.09514 30249 ft 427 kts 251°
2026-05-06 09:41 54.34583 24.04640 30809 ft 424 kts 251°
2026-05-06 09:41 54.33741 23.99808 31279 ft 423 kts 250°
2026-05-06 09:41 54.32888 23.94983 31666 ft 423 kts 250°
2026-05-06 09:41 54.32036 23.90224 32047 ft 423 kts 250°
2026-05-06 09:42 54.31170 23.85409 32479 ft 422 kts 250°
2026-05-06 09:42 54.30307 23.80623 32916 ft 420 kts 250°
2026-05-06 09:42 54.29443 23.75846 33328 ft 419 kts 250°
2026-05-06 09:42 54.28581 23.71093 33741 ft 417 kts 251°
2026-05-06 09:43 54.27719 23.66348 34120 ft 416 kts 251°
2026-05-06 09:43 54.26859 23.61624 34434 ft 416 kts 251°
2026-05-06 09:43 54.25996 23.56897 34777 ft 415 kts 251°
2026-05-06 09:43 54.25136 23.52196 35161 ft 413 kts 251°
2026-05-06 09:44 54.24279 23.47518 35487 ft 412 kts 251°
2026-05-06 09:44 54.23418 23.42838 35762 ft 412 kts 251°
2026-05-06 09:44 54.21196 23.33721 35861 ft 421 kts 240°
2026-05-06 09:45 54.18316 23.24909 35846 ft 425 kts 240°
2026-05-06 09:45 54.15447 23.16101 35834 ft 423 kts 240°
2026-05-06 09:46 54.12632 23.07379 35835 ft 422 kts 240°
2026-05-06 09:46 54.09807 22.98640 35832 ft 420 kts 240°
2026-05-06 09:47 54.06365 22.90666 35835 ft 419 kts 226°
2026-05-06 09:47 54.01787 22.84553 35837 ft 420 kts 213°
2026-05-06 09:48 53.96750 22.79501 35819 ft 421 kts 212°
2026-05-06 09:48 53.91680 22.74477 35830 ft 423 kts 212°
2026-05-06 09:49 53.86591 22.69393 35827 ft 426 kts 212°
2026-05-06 09:49 53.81475 22.64266 35830 ft 429 kts 212°
2026-05-06 09:50 53.76341 22.59126 35822 ft 430 kts 212°
2026-05-06 09:50 53.71178 22.53971 35815 ft 431 kts 212°
2026-05-06 09:51 53.66022 22.48839 35814 ft 430 kts 212°
2026-05-06 09:51 53.60903 22.43760 35812 ft 429 kts 212°
2026-05-06 09:52 53.55762 22.38674 35810 ft 428 kts 212°
2026-05-06 09:52 53.50636 22.33614 35802 ft 428 kts 212°
2026-05-06 09:53 53.45466 22.28528 35795 ft 428 kts 212°
2026-05-06 09:53 53.40330 22.23488 35786 ft 428 kts 212°
2026-05-06 09:54 53.35222 22.18490 35786 ft 428 kts 212°
2026-05-06 09:54 53.30165 22.13555 35785 ft 428 kts 212°
2026-05-06 09:55 53.25590 22.09101 35791 ft 428 kts 212°
2026-05-06 09:55 53.21334 22.04966 35792 ft 428 kts 212°
2026-05-06 09:56 53.16271 22.00067 35782 ft 428 kts 212°
2026-05-06 09:56 53.11118 21.95087 35784 ft 428 kts 211°
2026-05-06 09:57 53.05961 21.90114 35778 ft 428 kts 211°
2026-05-06 09:57 53.00802 21.85152 35766 ft 428 kts 211°
2026-05-06 09:58 52.95676 21.80237 35775 ft 428 kts 211°
2026-05-06 09:58 52.90514 21.75300 35789 ft 428 kts 211°
2026-05-06 09:59 52.85346 21.70372 35773 ft 429 kts 211°
2026-05-06 09:59 52.80166 21.65446 35784 ft 429 kts 211°
2026-05-06 10:00 52.74982 21.60533 35785 ft 429 kts 211°
2026-05-06 10:00 52.69802 21.55631 35776 ft 430 kts 211°
2026-05-06 10:01 52.65483 21.51555 35781 ft 430 kts 211°
2026-05-06 10:01 52.60288 21.46665 35778 ft 430 kts 211°
2026-05-06 10:02 52.55087 21.41781 35773 ft 431 kts 211°
2026-05-06 10:02 52.49881 21.36911 35772 ft 431 kts 211°
2026-05-06 10:03 52.44676 21.32052 35782 ft 431 kts 211°
2026-05-06 10:03 52.39470 21.27204 35767 ft 431 kts 211°
2026-05-06 10:04 52.34256 21.22364 35766 ft 430 kts 211°
2026-05-06 10:04 52.29045 21.17533 35770 ft 430 kts 211°
2026-05-06 10:05 52.23833 21.12714 35768 ft 430 kts 211°
2026-05-06 10:05 52.18663 21.07950 35769 ft 429 kts 210°
2026-05-06 10:06 52.13460 21.03168 35770 ft 429 kts 210°
2026-05-06 10:06 52.08260 20.98403 35782 ft 429 kts 210°
2026-05-06 10:07 52.03062 20.93652 35771 ft 428 kts 210°
2026-05-06 10:07 51.97940 20.88981 35768 ft 428 kts 210°
2026-05-06 10:08 51.92739 20.84250 35769 ft 429 kts 210°
2026-05-06 10:08 51.87534 20.79530 35761 ft 429 kts 210°
2026-05-06 10:09 51.82358 20.74847 35766 ft 429 kts 210°
2026-05-06 10:09 51.77145 20.70150 35771 ft 430 kts 210°
2026-05-06 10:10 51.71916 20.65460 35767 ft 430 kts 210°
2026-05-06 10:10 51.66686 20.60778 35773 ft 430 kts 210°
2026-05-06 10:11 51.61459 20.56109 35781 ft 429 kts 210°
2026-05-06 10:11 51.56232 20.51451 35785 ft 429 kts 210°
2026-05-06 10:12 51.51008 20.46806 35786 ft 429 kts 210°
2026-05-06 10:12 51.45817 20.42202 35793 ft 429 kts 210°
2026-05-06 10:13 51.40600 20.37569 35798 ft 428 kts 212°
2026-05-06 10:13 51.35980 20.31613 35798 ft 427 kts 225°
2026-05-06 10:14 51.31840 20.24794 35791 ft 428 kts 226°
2026-05-06 10:14 51.27693 20.17975 35796 ft 428 kts 225°
2026-05-06 10:15 51.23520 20.11181 35798 ft 428 kts 225°
2026-05-06 10:15 51.19329 20.04401 35800 ft 429 kts 225°
2026-05-06 10:16 51.15134 19.97646 35797 ft 429 kts 225°
2026-05-06 10:16 51.10936 19.90905 35800 ft 428 kts 225°
2026-05-06 10:17 51.06741 19.84186 35802 ft 427 kts 225°
2026-05-06 10:17 51.02592 19.77555 35802 ft 427 kts 225°
2026-05-06 10:18 50.98407 19.70886 35805 ft 426 kts 225°
2026-05-06 10:18 50.94218 19.64229 35809 ft 426 kts 225°
2026-05-06 10:19 50.90037 19.57602 35814 ft 426 kts 225°
2026-05-06 10:19 50.86045 19.51293 35816 ft 426 kts 225°
2026-05-06 10:20 50.82175 19.45191 35817 ft 426 kts 225°
2026-05-06 10:20 50.78028 19.38665 35823 ft 426 kts 225°
2026-05-06 10:21 50.73904 19.32198 35823 ft 427 kts 225°
2026-05-06 10:21 50.69754 19.25705 35826 ft 427 kts 225°
2026-05-06 10:22 50.65661 19.19318 35824 ft 427 kts 225°
2026-05-06 10:22 50.62109 19.13790 35823 ft 427 kts 225°
2026-05-06 10:23 50.58427 19.08072 35828 ft 427 kts 225°
2026-05-06 10:23 50.54195 19.01517 35834 ft 426 kts 225°
2026-05-06 10:24 50.49968 18.94984 35832 ft 426 kts 225°
2026-05-06 10:24 50.45742 18.88471 35832 ft 425 kts 225°
2026-05-06 10:25 50.41514 18.81972 35835 ft 425 kts 225°
2026-05-06 10:25 50.37287 18.75493 35831 ft 425 kts 225°
2026-05-06 10:26 50.33067 18.69041 35831 ft 424 kts 225°
2026-05-06 10:26 50.28876 18.62650 35832 ft 423 kts 225°
2026-05-06 10:27 50.24657 18.56231 35838 ft 423 kts 225°
2026-05-06 10:27 50.20439 18.49833 35843 ft 423 kts 225°
2026-05-06 10:28 50.16248 18.43492 35839 ft 422 kts 225°
2026-05-06 10:28 50.12031 18.37127 35846 ft 422 kts 225°
2026-05-06 10:29 50.07863 18.30850 35839 ft 409 kts 225°
2026-05-06 10:29 50.03797 18.24743 35846 ft 406 kts 225°
2026-05-06 10:30 49.99495 18.19081 35848 ft 407 kts 214°
2026-05-06 10:30 49.94419 18.15103 35419 ft 414 kts 207°
2026-05-06 10:31 49.91799 18.13245 34833 ft 414 kts 207°
2026-05-06 10:31 49.89180 18.11384 34113 ft 414 kts 207°
2026-05-06 10:31 49.86565 18.09513 33390 ft 415 kts 207°
2026-05-06 10:31 49.83959 18.07636 32881 ft 410 kts 207°
2026-05-06 10:32 49.81384 18.05775 32340 ft 406 kts 207°
2026-05-06 10:32 49.78840 18.03936 31819 ft 402 kts 207°
2026-05-06 10:32 49.76312 18.02108 31299 ft 399 kts 207°
2026-05-06 10:32 49.73810 18.00303 30799 ft 395 kts 207°
2026-05-06 10:33 49.71330 17.98517 30284 ft 391 kts 207°
2026-05-06 10:33 49.68836 17.96932 29787 ft 389 kts 201°
2026-05-06 10:33 49.66282 17.95621 29294 ft 385 kts 201°
2026-05-06 10:33 49.64059 17.94513 28835 ft 382 kts 200°
2026-05-06 10:34 49.62602 17.93787 28514 ft 380 kts 201°
2026-05-06 10:34 49.60346 17.92656 28062 ft 377 kts 200°
2026-05-06 10:34 49.57901 17.91441 27555 ft 374 kts 200°
2026-05-06 10:34 49.55670 17.90330 27079 ft 372 kts 200°
2026-05-06 10:35 49.53461 17.89227 26617 ft 370 kts 200°
2026-05-06 10:35 49.51137 17.88063 26128 ft 368 kts 200°
2026-05-06 10:35 49.49312 17.87148 25747 ft 366 kts 200°
2026-05-06 10:35 49.47515 17.86246 25349 ft 364 kts 200°
2026-05-06 10:36 49.45826 17.85398 24976 ft 363 kts 200°
2026-05-06 10:36 49.43712 17.84337 24526 ft 362 kts 200°
2026-05-06 10:36 49.41702 17.83327 24113 ft 360 kts 200°
2026-05-06 10:36 49.39630 17.82288 23650 ft 359 kts 200°
2026-05-06 10:37 49.37463 17.81201 23183 ft 357 kts 200°
2026-05-06 10:37 49.35873 17.80405 22840 ft 356 kts 200°
2026-05-06 10:37 49.34097 17.79516 22462 ft 354 kts 200°
2026-05-06 10:37 49.32171 17.78553 22043 ft 353 kts 200°
2026-05-06 10:38 49.30893 17.77913 21764 ft 352 kts 200°
2026-05-06 10:38 49.29224 17.77057 21394 ft 349 kts 200°
2026-05-06 10:38 49.27985 17.76434 21126 ft 348 kts 200°
2026-05-06 10:38 49.26760 17.75851 20873 ft 347 kts 198°
2026-05-06 10:39 49.25590 17.75328 20613 ft 346 kts 195°
2026-05-06 10:39 49.24098 17.75020 20154 ft 351 kts 186°
2026-05-06 10:39 49.21936 17.74523 19537 ft 352 kts 198°
2026-05-06 10:39 49.20569 17.73816 19468 ft 341 kts 204°
2026-05-06 10:40 49.18892 17.72753 19115 ft 338 kts 204°
2026-05-06 10:40 49.17766 17.72015 18851 ft 336 kts 205°
2026-05-06 10:40 49.16598 17.71312 18560 ft 336 kts 203°
2026-05-06 10:40 49.15408 17.70619 18270 ft 336 kts 203°
2026-05-06 10:41 49.14295 17.69861 17989 ft 335 kts 205°
2026-05-06 10:41 49.12900 17.69062 17629 ft 335 kts 201°
2026-05-06 10:41 49.11714 17.68419 17430 ft 332 kts 201°
2026-05-06 10:41 49.10572 17.67888 17172 ft 332 kts 197°
2026-05-06 10:42 49.09380 17.67380 16895 ft 331 kts 197°
2026-05-06 10:42 49.08322 17.66931 16686 ft 329 kts 197°
2026-05-06 10:42 49.07269 17.66477 16503 ft 327 kts 198°
2026-05-06 10:42 49.06191 17.65988 16338 ft 323 kts 200°
2026-05-06 10:43 49.05169 17.65438 16168 ft 319 kts 202°
2026-05-06 10:43 49.04148 17.64793 15885 ft 318 kts 204°
2026-05-06 10:43 49.02838 17.63905 15333 ft 325 kts 205°
2026-05-06 10:44 49.00668 17.62528 14976 ft 318 kts 204°
2026-05-06 10:44 48.99473 17.61803 14731 ft 315 kts 203°
2026-05-06 10:44 48.98164 17.61023 14185 ft 320 kts 203°
2026-05-06 10:44 48.96338 17.60026 13599 ft 325 kts 199°
2026-05-06 10:45 48.95053 17.59454 13413 ft 320 kts 199°
2026-05-06 10:45 48.94077 17.59011 13281 ft 315 kts 199°
2026-05-06 10:45 48.93093 17.58576 13090 ft 313 kts 198°
2026-05-06 10:45 48.91808 17.58104 12805 ft 312 kts 195°
2026-05-06 10:46 48.90158 17.57548 12383 ft 312 kts 195°
2026-05-06 10:46 48.88832 17.57093 11957 ft 314 kts 195°
2026-05-06 10:46 48.87152 17.56453 11578 ft 311 kts 198°
2026-05-06 10:46 48.85842 17.55875 11681 ft 295 kts 199°
2026-05-06 10:47 48.84265 17.55087 11325 ft 292 kts 201°
2026-05-06 10:47 48.83064 17.54477 10784 ft 301 kts 200°
2026-05-06 10:47 48.81743 17.53877 10339 ft 306 kts 197°
2026-05-06 10:47 48.80449 17.53383 10191 ft 300 kts 194°
2026-05-06 10:48 48.79324 17.53066 10135 ft 293 kts 190°
2026-05-06 10:48 48.78054 17.52900 9654 ft 299 kts 184°
2026-05-06 10:48 48.76815 17.52840 9188 ft 306 kts 184°
2026-05-06 10:48 48.74981 17.52790 8979 ft 298 kts 182°
2026-05-06 10:49 48.73708 17.52783 9132 ft 282 kts 181°
2026-05-06 10:49 48.72044 17.52812 8504 ft 288 kts 180°
2026-05-06 10:49 48.70917 17.52837 7835 ft 303 kts 181°
2026-05-06 10:49 48.69231 17.52843 7433 ft 304 kts 181°
2026-05-06 10:50 48.68236 17.52848 7400 ft 291 kts 181°
2026-05-06 10:50 48.66469 17.52846 7450 ft 266 kts 181°
2026-05-06 10:50 48.64868 17.52802 7068 ft 259 kts 183°
2026-05-06 10:50 48.63840 17.52736 6614 ft 264 kts 184°
2026-05-06 10:51 48.62659 17.52650 6269 ft 263 kts 183°
2026-05-06 10:51 48.61429 17.52579 6112 ft 253 kts 182°